Weather History for Hurguada, Egypt

Change the Weather History Date:

Sunday, June 16, 2013

  Actual Average Record
Temperature  
Mean Temperature 84 °F -  
Max Temperature 93 °F 95 °F - ()
Min Temperature 75 °F 79 °F - ()
Cooling Degree Days 19    
Growing Degree Days 34 (Base 50)    
Moisture  
Dew Point 59 °F    
Average Humidity 41    
Maximum Humidity 57    
Minimum Humidity 25    
Precipitation  
Precipitation 0.00 in - - ()
Sea Level Pressure  
Sea Level Pressure 29.74 in    
Wind  
Wind Speed 18 mph ()    
Max Wind Speed 25 mph    
Max Gust Speed -    
Visibility 6.0 miles    
Events      
T = Trace of Precipitation, MM = Missing Value Source: Averaged Metar Reports

Daily Weather History Graph

Daily Weather History Graph

Search for Another Location

Airport:

Trip Planner

Search our weather history database for the weather conditions in past years. The results will help you decide how hot, cold, wet, or windy it might be!

Date:

Astronomy

Jun. 16, 2013 Rise Set
Actual Time 4:50 AM EET 6:41 PM EET
Civil Twilight 4:23 AM EET 7:07 PM EET
Nautical Twilight 3:51 AM EET 7:39 PM EET
Astronomical Twilight 3:17 AM EET 8:13 PM EET
Moon 11:29 AM EET (6/16) 11:44 PM EET (6/16)
Length of Visible Light 14h 43m
Length of Day
13h 51m
Waxing Crescent, 47% of the Moon is Illuminated
Jun 16
Waxing Crescent
Jun 16
First Quarter
Jun 23
Full
Jun 30
Last Quarter
Jul 8
New

Hourly Weather History & Observations

Time (EET) Temp. Heat Index Dew Point Humidity Pressure Visibility Wind Dir Wind Speed Gust Speed Precip Events Conditions
12:00 AM 80.6 °F 80.3 °F 53.6 °F 39% 29.74 in - NW 17.3 mph - N/A   Clear
1:00 AM 78.8 °F - 55.4 °F 44% 29.74 in - WNW 20.7 mph - N/A   Clear
2:00 AM 79 °F - 58 °F 39% 29.75 in 6 mi NW 20.7 mph - -  
2:00 AM 78.8 °F - 59.0 °F 51% 29.74 in - NW 20.7 mph - N/A   Clear
3:00 AM 77.0 °F - 59.0 °F 54% 29.74 in - NNW 17.3 mph - N/A   Clear
4:00 AM 77.0 °F - 50.0 °F 39% 29.77 in - NNW 16.1 mph - N/A   Clear
5:00 AM 77.0 °F - 60.8 °F 57% 29.77 in - NNW 17.3 mph - N/A   Clear
6:00 AM 78.8 °F - 62.6 °F 57% 29.77 in - NNW 20.7 mph - N/A   Clear
7:00 AM 80.6 °F 81.8 °F 62.6 °F 54% 29.80 in - NNW 24.2 mph - N/A   Clear
8:00 AM 83 °F - 62 °F 39% 29.82 in 6 mi NNW 25.3 mph - -  
8:00 AM 82.4 °F 83.4 °F 62.6 °F 51% 29.80 in - NNW 25.3 mph - N/A   Clear
9:00 AM 86.0 °F 86.1 °F 60.8 °F 43% 29.80 in - North 21.9 mph - N/A   Clear
10:00 AM 87.8 °F 87.6 °F 60.8 °F 40% 29.80 in - NNW 19.6 mph - N/A   Clear
11:00 AM 91.4 °F 90.7 °F 59.0 °F 34% 29.77 in - North 23.0 mph - N/A   Clear
12:00 PM 91.4 °F 91.4 °F 60.8 °F 36% 29.74 in - North 20.7 mph - N/A   Clear
1:00 PM 91.4 °F 91.4 °F 60.8 °F 36% 29.74 in - North 23.0 mph - N/A   Clear
2:00 PM 91 °F - 60 °F 25% 29.73 in 6 mi North 23.0 mph - -  
2:00 PM 91.4 °F 90.7 °F 59.0 °F 34% 29.71 in - North 23.0 mph - N/A   Clear
3:00 PM 93.2 °F 91.9 °F 57.2 °F 30% 29.71 in - North 25.3 mph - N/A   Clear
4:00 PM 91.4 °F 90.7 °F 59.0 °F 34% 29.68 in - North 13.8 mph - N/A   Clear
5:00 PM 89.6 °F 89.5 °F 60.8 °F 38% 29.68 in - North 20.7 mph - N/A   Clear
6:00 PM 87.8 °F 88.5 °F 62.6 °F 43% 29.68 in - North 23.0 mph - N/A   Clear
7:00 PM 86.0 °F 87.3 °F 64.4 °F 48% 29.71 in - North 20.7 mph - N/A   Clear
8:00 PM 85 °F - 59 °F 31% 29.72 in 6 mi North 15.0 mph - -  
8:00 PM 86.0 °F 85.4 °F 59.0 °F 40% 29.71 in - North 15.0 mph - N/A   Clear
9:00 PM 84.2 °F 83.5 °F 57.2 °F 40% 29.71 in - NNW 19.6 mph - N/A   Clear
10:00 PM 82.4 °F 81.7 °F 55.4 °F 39% 29.74 in - NW 6.9 mph - N/A   Clear
11:00 PM 80.6 °F 80.8 °F 57.2 °F 45% 29.74 in - NW 10.4 mph - N/A   Clear